TimeEDT,TemperatureF,Dew PointF,Humidity,Sea Level PressureIn,VisibilityMPH,Wind Direction,Wind SpeedMPH,Gust SpeedMPH,PrecipitationIn,Events,Conditions,WindDirDegrees,DateUTC
12:53 AM,64.9,63.0,93,30.16,5.0,Calm,Calm,-,0.00,Rain,Rain,0,2013-08-18 04:53:00
1:05 AM,64.4,62.6,94,30.18,2.0,NE,3.5,-,0.06,Rain,Heavy Rain,40,2013-08-18 05:05:00
1:18 AM,64.4,62.6,94,30.17,2.0,Calm,Calm,-,0.11,Rain,Heavy Rain,0,2013-08-18 05:18:00
1:23 AM,64.4,62.6,94,30.17,1.8,NE,3.5,-,0.15,Rain,Heavy Rain,40,2013-08-18 05:23:00
1:30 AM,64.4,62.6,94,30.16,3.0,NE,5.8,-,0.16,Rain,Light Rain,40,2013-08-18 05:30:00
1:50 AM,64.4,62.6,94,30.17,10.0,Calm,Calm,-,0.16,,Overcast,0,2013-08-18 05:50:00
1:53 AM,64.9,64.0,97,30.14,10.0,North,3.5,-,0.16,,Overcast,10,2013-08-18 05:53:00
2:22 AM,64.4,64.4,100,30.15,9.0,NNE,4.6,-,N/A,,Overcast,30,2013-08-18 06:22:00
2:42 AM,64.4,62.6,94,30.16,10.0,NNE,4.6,-,N/A,,Overcast,30,2013-08-18 06:42:00
2:53 AM,64.9,63.0,93,30.13,10.0,NNE,4.6,-,N/A,,Overcast,20,2013-08-18 06:53:00
3:53 AM,64.0,63.0,96,30.13,10.0,NE,4.6,-,0.00,,Overcast,40,2013-08-18 07:53:00
4:04 AM,64.4,62.6,94,30.15,8.0,NNE,3.5,-,0.00,Rain,Light Rain,30,2013-08-18 08:04:00
4:36 AM,64.4,64.4,100,30.16,4.0,Calm,Calm,-,0.01,Rain,Light Rain,0,2013-08-18 08:36:00
4:43 AM,64.4,64.4,100,30.16,1.8,Calm,Calm,-,0.02,Rain,Light Rain,0,2013-08-18 08:43:00
4:51 AM,64.4,64.4,100,30.16,2.5,East,3.5,-,0.02,Rain,Light Rain,80,2013-08-18 08:51:00
4:53 AM,64.0,64.0,100,30.14,2.5,East,4.6,-,0.02,Rain,Light Rain,80,2013-08-18 08:53:00
5:00 AM,64.4,64.4,100,30.17,3.0,ENE,3.5,-,0.01,Rain,Light Rain,70,2013-08-18 09:00:00
5:17 AM,64.4,62.6,94,30.16,4.0,NE,4.6,-,0.01,,Overcast,40,2013-08-18 09:17:00
5:53 AM,64.0,63.0,96,30.16,9.0,ENE,4.6,-,0.01,Rain,Light Rain,60,2013-08-18 09:53:00
6:53 AM,64.9,64.0,97,30.17,10.0,NE,3.5,-,0.01,,Overcast,40,2013-08-18 10:53:00
7:33 AM,64.4,64.4,100,30.19,10.0,NNE,3.5,-,N/A,,Overcast,20,2013-08-18 11:33:00
7:53 AM,64.9,64.0,97,30.18,10.0,NNE,4.6,-,N/A,,Overcast,30,2013-08-18 11:53:00
8:53 AM,66.0,64.0,93,30.19,10.0,ENE,3.5,-,0.00,Rain,Light Rain,60,2013-08-18 12:53:00
9:53 AM,68.0,64.9,90,30.20,10.0,ENE,3.5,-,0.00,,Overcast,60,2013-08-18 13:53:00
10:50 AM,69.8,66.2,88,30.23,10.0,ENE,3.5,-,N/A,,Overcast,70,2013-08-18 14:50:00
10:53 AM,69.1,64.9,87,30.21,10.0,NE,3.5,-,N/A,,Overcast,40,2013-08-18 14:53:00
11:53 AM,70.0,66.0,87,30.21,10.0,NE,3.5,-,N/A,,Overcast,40,2013-08-18 15:53:00
12:53 PM,71.1,66.9,87,30.19,10.0,NNE,3.5,-,N/A,,Overcast,20,2013-08-18 16:53:00
1:32 PM,73.4,68.0,83,30.21,10.0,Calm,Calm,-,N/A,,Overcast,0,2013-08-18 17:32:00
1:53 PM,73.9,66.9,79,30.18,10.0,Variable,3.5,-,N/A,,Overcast,0,2013-08-18 17:53:00
2:53 PM,75.9,68.0,76,30.16,10.0,Calm,Calm,-,N/A,,Overcast,0,2013-08-18 18:53:00
3:00 PM,75.2,66.2,73,30.18,10.0,Calm,Calm,-,N/A,,Overcast,0,2013-08-18 19:00:00
3:53 PM,75.0,66.9,76,30.15,10.0,Calm,Calm,-,N/A,,Overcast,0,2013-08-18 19:53:00
4:53 PM,75.9,68.0,76,30.14,10.0,Calm,Calm,-,N/A,,Overcast,0,2013-08-18 20:53:00
5:11 PM,77.0,68.0,74,30.16,10.0,Calm,Calm,-,N/A,,Scattered Clouds,0,2013-08-18 21:11:00
5:53 PM,75.9,68.0,76,30.14,10.0,Calm,Calm,-,N/A,,Mostly Cloudy,0,2013-08-18 21:53:00
6:38 PM,75.2,69.8,83,30.16,10.0,Calm,Calm,-,N/A,,Overcast,0,2013-08-18 22:38:00
6:53 PM,73.0,69.1,87,30.14,10.0,Calm,Calm,-,0.00,Rain,Light Rain,0,2013-08-18 22:53:00
7:27 PM,73.4,69.8,88,30.18,10.0,ENE,3.5,-,0.00,,Overcast,70,2013-08-18 23:27:00
7:53 PM,72.0,69.1,91,30.15,10.0,ENE,3.5,-,0.00,,Partly Cloudy,70,2013-08-18 23:53:00
8:53 PM,70.0,69.1,97,30.15,9.0,Calm,Calm,-,0.00,Rain,Light Rain,0,2013-08-19 00:53:00
9:53 PM,71.1,70.0,96,30.17,8.0,Calm,Calm,-,0.01,Rain,Light Rain,0,2013-08-19 01:53:00
10:53 PM,70.0,70.0,100,30.18,4.0,Calm,Calm,-,0.01,Rain,Light Rain,0,2013-08-19 02:53:00
11:53 PM,70.0,69.1,97,30.18,7.0,Calm,Calm,-,0.01,,Mostly Cloudy,0,2013-08-19 03:53:00